Weather History for Houghton Lake, MI

Change the Weather History Date:

Monday, December 23, 2013

  Actual Average Record
Temperature  
Mean Temperature 12 °F 22 °F  
Max Temperature 19 °F 29 °F 53 °F (1957)
Min Temperature 4 °F 15 °F -15 °F (1945)
Degree Days  
Heating Degree Days 53 43  
Month to date heating degree days 1052 919  
Since 1 July heating degree days 2917 2802  
Moisture  
Dew Point 8 °F    
Average Humidity 84    
Maximum Humidity 100    
Minimum Humidity 67    
Precipitation  
Precipitation 0.01 in 0.05 in 1.17 in (1952)
Month to date precipitation 2.01 1.27  
Year to date precipitation 30.51 28.37  
Snow  
Snow T in 0.60 in 5.00 in (1968)
Month to date snowfall 16.4 11.8  
Since 1 July snowfall 20.2 20.9  
Snow Depth 10.00 in    
Sea Level Pressure  
Sea Level Pressure 30.19 in    
Wind  
Wind Speed 4 mph (North)    
Max Wind Speed 13 mph    
Max Gust Speed 17 mph    
Visibility 9 miles    
Events Snow    
T = Trace of Precipitation, MM = Missing Value Source: NWS Daily Summary

Daily Weather History Graph

Daily Weather History Graph

Search for Another Location

Airport:

Trip Planner

Search our weather history database for the weather conditions in past years. The results will help you decide how hot, cold, wet, or windy it might be!

Date:

Astronomy

Dec. 23, 2013 Rise Set
Actual Time 8:12 AM EST 5:03 PM EST
Civil Twilight 7:39 AM EST 5:36 PM EST
Nautical Twilight 7:02 AM EST 6:13 PM EST
Astronomical Twilight 6:26 AM EST 6:49 PM EST
Moon 11:25 PM EST (12/23) 11:25 AM EST (12/23)
Length of Visible Light 9h 57m
Length of Day
8h 50m
Waning Gibbous, 68% of the Moon is Illuminated
Dec 23
Waning Gibbous
Dec 25
Last Quarter
Jan 1
New
Jan 7
First Quarter
Jan 15
Full

Hourly Weather History & Observations

Time (EST) Temp. Windchill Dew Point Humidity Pressure Visibility Wind Dir Wind Speed Gust Speed Precip Events Conditions
12:53 AM 18.0 °F - 15.1 °F 88% 30.05 in 10.0 mi Calm Calm - N/A   Overcast
1:04 AM 18.0 °F 11.1 °F 14.0 °F 84% 29.99 in 10.0 mi NNW 4.6 mph - N/A   Overcast
1:37 AM 17.1 °F 8.7 °F 12.9 °F 84% 29.99 in 9.0 mi North 5.8 mph - 0.00 in Snow Light Snow
1:53 AM 17.1 °F 10.0 °F 12.9 °F 84% 30.06 in 6.0 mi North 4.6 mph - 0.00 in Snow Light Snow
2:53 AM 17.1 °F - 12.9 °F 84% 30.08 in 6.0 mi Calm Calm - 0.01 in Snow Light Snow
3:53 AM 16.0 °F - 12.9 °F 88% 30.10 in 5.0 mi Calm Calm - 0.00 in Snow Light Snow
4:53 AM 16.0 °F 10.4 °F 12.0 °F 84% 30.10 in 7.0 mi NNE 3.5 mph - 0.00 in Snow Light Snow
5:45 AM 14.0 °F 8.2 °F 10.9 °F 88% 30.06 in 4.0 mi NNW 3.5 mph - 0.00 in Snow Light Snow
5:53 AM 12.9 °F - 10.9 °F 92% 30.12 in 5.0 mi Calm Calm - 0.00 in Snow Light Snow
6:03 AM 14.0 °F - 10.9 °F 88% 30.05 in 5.0 mi Calm Calm - 0.00 in Snow Light Snow
6:30 AM 12.9 °F - 10.9 °F 92% 30.06 in 4.0 mi Calm Calm - 0.00 in Snow Light Snow
6:53 AM 12.0 °F - 9.0 °F 88% 30.14 in 9.0 mi Calm Calm - 0.00 in   Mostly Cloudy
7:06 AM 10.9 °F - 9.0 °F 92% 30.08 in 10.0 mi Calm Calm - N/A   Scattered Clouds
7:53 AM 6.1 °F -0.9 °F 6.1 °F 100% 30.18 in 10.0 mi NW 3.5 mph - N/A   Clear
8:53 AM 10.0 °F - 6.1 °F 84% 30.20 in 10.0 mi Calm Calm - N/A   Overcast
9:53 AM 12.0 °F - 9.0 °F 88% 30.22 in 9.0 mi Calm Calm - N/A   Mostly Cloudy
10:06 AM 12.0 °F - 9.0 °F 88% 30.15 in 10.0 mi Calm Calm - N/A   Scattered Clouds
10:53 AM 12.9 °F 3.8 °F 8.1 °F 81% 30.24 in 10.0 mi West 5.8 mph - N/A   Clear
11:50 AM 17.6 °F 6.4 °F 8.6 °F 68% 30.17 in 10.0 mi NNW 9.2 mph - N/A   Mostly Cloudy
11:53 AM 17.1 °F 5.0 °F 8.1 °F 68% 30.24 in 10.0 mi NW 10.4 mph - N/A   Mostly Cloudy
12:53 PM 17.1 °F 6.6 °F 8.1 °F 68% 30.23 in 10.0 mi NW 8.1 mph - N/A   Overcast
1:53 PM 18.0 °F 8.7 °F 9.0 °F 68% 30.24 in 10.0 mi NW 6.9 mph - N/A   Overcast
2:53 PM 17.1 °F 7.6 °F 9.0 °F 71% 30.25 in 10.0 mi NW 6.9 mph - N/A   Overcast
3:53 PM 17.1 °F 7.6 °F 9.0 °F 71% 30.27 in 8.0 mi NW 6.9 mph - 0.00 in Snow Light Snow
4:53 PM 17.1 °F 8.7 °F 9.0 °F 71% 30.28 in 9.0 mi NNW 5.8 mph - 0.00 in   Overcast
5:53 PM 15.1 °F 6.4 °F 8.1 °F 74% 30.31 in 10.0 mi North 5.8 mph - N/A   Overcast
6:22 PM 12.9 °F 3.8 °F 7.0 °F 77% 30.24 in 10.0 mi North 5.8 mph - N/A   Overcast
6:44 PM 12.0 °F 1.5 °F 7.0 °F 80% 30.24 in 10.0 mi North 6.9 mph - N/A   Mostly Cloudy
6:53 PM 10.9 °F 0.2 °F 6.1 °F 81% 30.32 in 10.0 mi North 6.9 mph - N/A   Mostly Cloudy
7:24 PM 10.9 °F 1.4 °F 5.0 °F 77% 30.25 in 10.0 mi NNE 5.8 mph - N/A   Overcast
7:49 PM 10.4 °F 2.2 °F 5.0 °F 79% 30.26 in 10.0 mi NE 4.6 mph - N/A   Overcast
7:53 PM 10.0 °F 0.4 °F 5.0 °F 80% 30.35 in 10.0 mi NE 5.8 mph - N/A   Overcast
8:35 PM 9.0 °F -0.9 °F 3.9 °F 80% 30.26 in 10.0 mi NE 5.8 mph - N/A   Overcast
8:53 PM 9.0 °F -0.9 °F 3.0 °F 77% 30.35 in 10.0 mi NE 5.8 mph - N/A   Overcast
9:02 PM 8.1 °F -0.5 °F 3.0 °F 80% 30.27 in 10.0 mi NE 4.6 mph - N/A   Overcast
9:53 PM 6.1 °F -4.3 °F 1.9 °F 83% 30.35 in 10.0 mi ENE 5.8 mph - N/A   Overcast
10:53 PM 5.0 °F -2.1 °F 1.0 °F 84% 30.34 in 10.0 mi NNE 3.5 mph - N/A   Overcast
11:53 PM 5.0 °F -2.1 °F 1.0 °F 84% 30.34 in 10.0 mi NNE 3.5 mph - N/A   Overcast